Regional Weather Roundup
Issued by NWS Midland/Odessa, TX

Skip options and go directly to product.
Home | Oldest Version | Next Version | Current Version | All | Text Only | Save Text | Print | Product List | Glossary On

Skip product version selection by date and time.   
381
ASUS44 KMAF 191402
RWRMAF
MIDLAND AREA WEATHER ROUNDUP
NATIONAL WEATHER SERVICE MIDLAND TX
900 AM CDT TUE AUG 19 2014

...IN SOUTHWEST TEXAS AND SOUTHEAST NEW MEXICO...

CITY           SKY/WX    TMP DP  RH WIND       PRES   REMARKS
ALPINE         SUNNY     74  59  59 SW5       30.10R
ANDREWS        FAIR      69  63  79 SE8       29.97S
ARTESIA        SUNNY     72  55  56 CALM      29.97S
BIG SPRING     CLOUDY    74  69  85 SE13      29.99S
CARLSBAD       SUNNY     74  63  68 CALM      29.95S
DRYDEN           N/A     77  69  76 SE10      29.94R
FORT STOCKTON  SUNNY     74  64  71 S14       29.95R
GUAD PASS      SUNNY     68  57  68 S8        30.11S
HOBBS          SUNNY     68  63  83 E9        29.99F
MARFA          SUNNY     68  61  77 CALM      30.10R
MIDLAND AIRPK  SUNNY     72  65  79 SE9       29.97S
MIDLAND INTL   SUNNY     71  65  81 S12       29.96R
ODESSA         SUNNY     71  65  81 S10       29.96S
PECOS          SUNNY     70  64  81 CALM      29.91S
PRESIDIO       FAIR      78  64  62 CALM      29.95S
SEMINOLE       SUNNY     69  63  80 SE8       29.99S
SNYDER         MOSUNNY   71  66  84 S10       29.98R
WINK           SUNNY     74  65  73 SE12      29.92S
$$
...OTHER STATIONS IN TEXAS...

CITY           SKY/WX    TMP DP  RH WIND       PRES   REMARKS
ABILENE        MOSUNNY   76  67  73 S13       29.95R
AMARILLO       MOSUNNY   70  65  84 SE6       30.01R
AUSTIN         PTSUNNY   81  71  71 S16       29.95R
BROWNSVILLE    SUNNY     84  79  85 S12       29.92R
CORPUS CHRISTI PTSUNNY   83  78  85 S14       29.93R
DALLAS FTW     PTSUNNY   82  70  66 SE8       29.92R
DEL RIO        PTSUNNY   74  70  87 SE10      29.91R
EL PASO        MOSUNNY   76  58  53 SW12      29.99R
HOUSTON INT    PTSUNNY   83  77  82 S5        29.96R
LUBBOCK        CLOUDY    69  65  86 SE10      29.99R FOG
SAN ANGELO     PTSUNNY   73  66  78 SE10      29.96R
SAN ANTONIO    CLOUDY    80  68  66 SW10      30.00R
WACO           CLOUDY    80  72  76 S14       29.93R
WICHITA FALLS  NOT AVBL
$$
...OTHER LOCATIONS IN NEW MEXICO...

CITY           SKY/WX    TMP DP  RH WIND       PRES   REMARKS
ALAMAGORDO     SUNNY     73  57  56 S5        30.01S
ALBUQUERQUE    MOSUNNY   67  50  54 CALM      30.09S
CANNON AFB     NOT AVBL
CLOVIS           N/A     66  61  82 CALM      30.05S
HOLLOMAN AFB   SUNNY     74  57  55 S8        29.99S
ROSWELL        SUNNY     71  62  73 CALM      29.97S
RUIDOSO        SUNNY     63  50  63 CALM      30.20S
SANTA FE       MOSUNNY   67  45  45 N3        30.14S
TRUTH OR CONSE SUNNY     72  55  55 N3        30.04R
TUCUMCARI      SUNNY     73  59  61 W7        29.99F
$$

USA.gov is the U.S. government's official web portal to all federal, state and local government web resources and services.